Regional Weather Roundup
Issued by NWS

Home | Current Version | Previous Version | Text Only | Print | Product List | Glossary Off
Versions: 1 2 3 4 5 6 7 8 9 10 11 12 13 14 15 16 17 18 19 20 21 22 23 24 25 26 27 28 29 30 31 32 33 34 35 36 37 38 39 40 41 42 43 44 45 46 47 48 49 50

448
ASUS45 KCYS 091610
RWRWY

WYOMING REGIONAL WEATHER ROUNDUP
NATIONAL WEATHER SERVICE CHEYENNE WY
900 AM MST FRI DEC 09 2016

NOTE:  "FAIR" INDICATES FEW OR NO CLOUDS BELOW 12,000 FEET
WITH NO SIGNIFICANT WEATHER AND/OR OBSTRUCTIONS TO VISIBILITY.

WYZ001-091700-
YELLOWSTONE NATIONAL PARK

CITY           SKY/WX    TMP DP  RH WIND       PRES   REMARKS
LK YELLOWSTONE   N/A     18  16  92 CALM      30.04R
W YELLOWSTONE  NOT AVBL

$$
WYZ002>013-054>058-071-098>099-091700-
NORTHERN WYOMING

CITY           SKY/WX    TMP DP  RH WIND       PRES   REMARKS
JACKSON        FLURRIES  16  16 100 N7        30.08R WCI   6
CODY           FAIR       1  -5  75 CALM      30.15R
GREYBULL       FAIR       7  -2  66 NW5       30.24R WCI  -2
WORLAND        FAIR       4   0  83 W3        30.21R
SHERIDAN       CLOUDY     5  -1  76 CALM      30.25R
BUFFALO        CLOUDY     4  -2  76 N6        30.16R WCI  -7
GILLETTE       CLOUDY    -1  -6  79 CALM      30.21R
HULETT         FAIR      -4  -9  77 CALM      30.22R
NEWCASTLE      FAIR       5   0  78 CALM      30.21R

$$
WYZ014>020-022>026-101>103-091700-
CENTRAL WYOMING

CITY           SKY/WX    TMP DP  RH WIND       PRES   REMARKS
BIG PINEY      CLOUDY     6   4  91 S3        30.14S
PINEDALE       LGT SNOW  12  10  92 CALM      30.14S
DUBOIS         CLOUDY    30  19  64 W20G25    29.97R WCI  18
LANDER         FAIR       3  -2  79 NW5       30.07R WCI  -6
RIVERTON       FAIR       9   2  73 CALM      30.09S
CASPER         FAIR      -4  -8  83 W8        30.11F WCI -19
DOUGLAS        FAIR       1  -4  79 W5        30.14F WCI  -9

$$
WYZ021-027>030-104>119-091700-
SOUTHERN WYOMING

CITY           SKY/WX    TMP DP  RH WIND       PRES   REMARKS
EVANSTON       LGT SNOW  31  29  92 SW15      30.18R FOG     WCI  20
KEMMERER       FLURRIES  30  28  93 SW15      30.14R WCI  19
FORT BRIDGER   CLOUDY    33  33 100 W14       30.18R WCI  24
ROCK SPRINGS   FAIR      29  26  89 W23       30.13S WCI  15
DIXON          CLOUDY    32  20  61 W12G22    30.21S WCI  23
RAWLINS        CLOUDY    29  21  72 W25G35    30.09R WCI  14
SARATOGA       FAIR      30  21  69 SW14G24   30.13R WCI  20
LARAMIE        FAIR      30  22  72 W17       30.07R WCI  18
CHEYENNE       FAIR      39  24  55 W17G29    30.03R WCI  30
TORRINGTON     FAIR      12   4  70 NW7       30.15R WCI   1
PINE BLUFFS    FAIR      14   5  67 S8        30.09R WCI   3

$$




USA.gov is the U.S. government's official web portal to all federal, state and local government web resources and services.